This is the latest recevied weather packets stored in our database for station/object WS2Z. If no packets are shown the sender has not sent any weather packets the latest 10 day(s).
| Time | Temp. | Humidity | Pressure | Rain* | Wind** | Luminosity | Snow |
|---|---|---|---|---|---|---|---|
| 1778194427 | 30° C | 60% | 1014.7 hPa | 0 mm | - | 90 W/m² | - |
| 1778194123 | 30.56° C | 56% | 1014.4 hPa | 0 mm | - | 107 W/m² | - |
| 1778193820 | 30° C | 56% | 1014.4 hPa | 0 mm | - | 121 W/m² | - |
| 1778193516 | 30° C | 56% | 1014.5 hPa | 0 mm | - | 135 W/m² | - |
| 1778193212 | 30.56° C | 55% | 1014.3 hPa | 0 mm | - | 150 W/m² | - |
| 1778192909 | 30° C | 57% | 1014.5 hPa | 0 mm | - | 166 W/m² | - |
| 1778192606 | 30.56° C | 56% | 1014.4 hPa | 0 mm | - | 181 W/m² | - |
| 1778192303 | 30° C | 59% | 1014.3 hPa | 0 mm | - | 197 W/m² | - |
| 1778191999 | 30.56° C | 60% | 1014.4 hPa | 0 mm | - | 214 W/m² | - |
| 1778191695 | 30.56° C | 58% | 1014.5 hPa | 0 mm | - | 230 W/m² | - |
| 1778191394 | 30.56° C | 60% | 1014.4 hPa | 0 mm | - | 249 W/m² | - |
| 1778191090 | 30.56° C | 59% | 1014.4 hPa | 0 mm | - | 265 W/m² | - |
| 1778190787 | 30.56° C | 58% | 1014.4 hPa | 0 mm | - | 283 W/m² | - |
| 1778190484 | 30.56° C | 58% | 1014.4 hPa | 0 mm | - | 302 W/m² | - |
| 1778190181 | 30.56° C | 58% | 1014.6 hPa | 0 mm | - | 320 W/m² | - |
| 1778189876 | 30.56° C | 59% | 1014.5 hPa | 0 mm | - | 337 W/m² | - |
| 1778189574 | 30° C | 61% | 1014.4 hPa | 0 mm | - | 355 W/m² | - |
| 1778189270 | 30.56° C | 58% | 1014.5 hPa | 0 mm | - | 372 W/m² | - |
| 1778188967 | 30.56° C | 57% | 1014.7 hPa | 0 mm | - | 390 W/m² | - |
| 1778188663 | 30.56° C | 57% | 1014.6 hPa | 0 mm | - | 409 W/m² | - |
| 1778188359 | 30.56° C | 56% | 1014.8 hPa | 0 mm | - | 426 W/m² | - |
| 1778188057 | 30.56° C | 56% | 1014.6 hPa | 0 mm | - | 442 W/m² | - |
| 1778187754 | 30.56° C | 60% | 1014.8 hPa | 0 mm | - | 462 W/m² | - |
| 1778187450 | 30.56° C | 58% | 1014.7 hPa | 0 mm | - | 472 W/m² | - |
| 1778187147 | 30.56° C | 57% | 1014.8 hPa | 0 mm | - | 496 W/m² | - |
* Rain latest hour (hover to see other rain measurements)
** Current wind speed in m/s (hover to see current wind gust speed)